QPF
0.00 0.00 0.00 0.00 0.00 0.00 0.00 0.00 0.00 0.00 0.00 0.00 0.00 0.01 0.02 0.02 0.05 0.06 0.04 0.02 0.03 0.03 0.02 0.01 0.01 0.00 0.00 0.00 0.00 0.00 0.00 0.01 0.01 0.01 0.01 0.02 0.03 0.02 0.03 0.04 0.04 0.05 0.07 0.08
0.00 0.00 0.00 0.00 0.00 0.00 0.00 0.00 0.00 0.00 0.00 0.00 0.01 0.01 0.01 0.01 0.02 0.02 0.02 0.02 0.04 0.09 0.04 0.01 0.01 0.01 0.01 0.01 0.00 0.01 0.01 0.01 0.01 0.01 0.01 0.02 0.02 0.03 0.03 0.02 0.03 0.04 0.05 0.06
0.00 0.00 0.00 0.00 0.00 0.00 0.00 0.00 0.00 0.00 0.00 0.00 0.00 0.00 0.00 0.01 0.02 0.03 0.06 0.05 0.05 0.08 0.03 0.01 0.02 0.02 0.02 0.02 0.02 0.03 0.03 0.02 0.01 0.01 0.01 0.01 0.02 0.03 0.05 0.04 0.03 0.04 0.04 0.05
0.00 0.00 0.00 0.00 0.00 0.00 0.00 0.00 0.00 0.00 0.00 0.00 0.00 0.00 0.00 0.01 0.01 0.03 0.09 0.12 0.06 0.05 0.04 0.02 0.02 0.03 0.03 0.04 0.04 0.05 0.03 0.02 0.02 0.02 0.02 0.02 0.03 0.04 0.04 0.03 0.03 0.04 0.06 0.05
0.00 0.00 0.00 0.00 0.00 0.00 0.00 0.00 0.00 0.00 0.00 0.00 0.00 0.00 0.00 0.01 0.02 0.06 0.06 0.04 0.02 0.02 0.02 0.02 0.02 0.03 0.04 0.05 0.06 0.06 0.05 0.04 0.03 0.03 0.04 0.04 0.04 0.04 0.03 0.03 0.03 0.04 0.04 0.04
0.00 0.00 0.00 0.00 0.00 0.00 0.00 0.00 0.01 0.01 0.00 0.00 0.01 0.01 0.01 0.01 0.02 0.02 0.02 0.02 0.01 0.02 0.02 0.02 0.02 0.03 0.03 0.04 0.05 0.05 0.06 0.05 0.04 0.04 0.06 0.05 0.05 0.03 0.02 0.02 0.03 0.03 0.03 0.03
0.00 0.00 0.00 0.00 0.00 0.00 0.01 0.02 0.02 0.03 0.03 0.02 0.01 0.01 0.01 0.01 0.01 0.02 0.01 0.01 0.01 0.02 0.02 0.02 0.02 0.02 0.03 0.04 0.04 0.05 0.07 0.06 0.05 0.04 0.04 0.03 0.04 0.02 0.02 0.02 0.02 0.02 0.02 0.02
0.00 0.00 0.00 0.00 0.00 0.01 0.02 0.02 0.03 0.03 0.04 0.04 0.04 0.02 0.02 0.01 0.01 0.02 0.02 0.01 0.02 0.02 0.03 0.02 0.03 0.03 0.03 0.04 0.04 0.04 0.05 0.05 0.05 0.04 0.03 0.02 0.02 0.02 0.02 0.02 0.02 0.02 0.03 0.03
0.00 0.01 0.01 0.01 0.01 0.02 0.03 0.04 0.03 0.02 0.03 0.03 0.05 0.05 0.03 0.02 0.01 0.02 0.02 0.02 0.03 0.03 0.03 0.03 0.03 0.03 0.04 0.04 0.05 0.05 0.05 0.05 0.05 0.05 0.06 0.06 0.05 0.04 0.03 0.04 0.04 0.03 0.03 0.03
0.01 0.02 0.02 0.03 0.03 0.05 0.07 0.05 0.03 0.03 0.03 0.02 0.02 0.03 0.03 0.03 0.03 0.03 0.03 0.04 0.05 0.05 0.04 0.03 0.03 0.04 0.04 0.04 0.05 0.05 0.05 0.05 0.05 0.05 0.06 0.06 0.06 0.06 0.05 0.05 0.04 0.04 0.03 0.03
0.03 0.03 0.03 0.04 0.08 0.08 0.06 0.03 0.02 0.03 0.04 0.04 0.03 0.03 0.03 0.04 0.05 0.06 0.06 0.04 0.04 0.04 0.03 0.03 0.03 0.03 0.04 0.05 0.05 0.05 0.05 0.04 0.05 0.06 0.06 0.06 0.06 0.07 0.07 0.06 0.06 0.05 0.05 0.04
0.06 0.05 0.04 0.04 0.05 0.05 0.03 0.02 0.02 0.03 0.04 0.07 0.08 0.04 0.02 0.03 0.04 0.05 0.07 0.05 0.03 0.03 0.03 0.04 0.05 0.04 0.04 0.05 0.06 0.05 0.05 0.05 0.06 0.06 0.05 0.04 0.05 0.05 0.06 0.06 0.06 0.06 0.05 0.04
0.07 0.07 0.05 0.06 0.07 0.09 0.06 0.04 0.03 0.04 0.04 0.05 0.07 0.06 0.03 0.03 0.03 0.03 0.04 0.03 0.03 0.04 0.05 0.08 0.10 0.09 0.06 0.06 0.06 0.06 0.06 0.05 0.05 0.05 0.05 0.04 0.04 0.04 0.05 0.05 0.04 0.04 0.04 0.04
0.06 0.08 0.07 0.07 0.08 0.09 0.09 0.13 0.10 0.07 0.06 0.06 0.08 0.09 0.08 0.08 0.08 0.07 0.05 0.04 0.04 0.06 0.09 0.11 0.13 0.13 0.09 0.09 0.09 0.09 0.07 0.06 0.05 0.05 0.05 0.05 0.04 0.04 0.03 0.03 0.03 0.03 0.03 0.03
0.06 0.08 0.09 0.08 0.08 0.08 0.08 0.10 0.11 0.11 0.11 0.11 0.14 0.17 0.14 0.14 0.12 0.09 0.07 0.05 0.04 0.04 0.06 0.08 0.11 0.12 0.11 0.10 0.09 0.07 0.07 0.06 0.05 0.05 0.05 0.04 0.04 0.03 0.02 0.02 0.02 0.02 0.01 0.01
0.06 0.07 0.08 0.11 0.13 0.15 0.15 0.14 0.13 0.11 0.08 0.08 0.09 0.11 0.10 0.08 0.06 0.06 0.06 0.05 0.05 0.04 0.05 0.09 0.10 0.10 0.08 0.07 0.06 0.06 0.08 0.08 0.07 0.06 0.05 0.04 0.04 0.03 0.03 0.03 0.03 0.03 0.02 0.02
0.04 0.07 0.08 0.09 0.11 0.11 0.12 0.11 0.10 0.09 0.08 0.07 0.07 0.08 0.08 0.07 0.06 0.04 0.04 0.03 0.02 0.02 0.02 0.04 0.06 0.06 0.06 0.07 0.06 0.05 0.05 0.05 0.05 0.03 0.02 0.02 0.02 0.02 0.02 0.02 0.01 0.02 0.02 0.03
0.02 0.07 0.12 0.14 0.13 0.11 0.08 0.08 0.08 0.07 0.08 0.11 0.13 0.13 0.09 0.06 0.05 0.04 0.05 0.04 0.03 0.02 0.02 0.02 0.02 0.03 0.04 0.04 0.04 0.03 0.02 0.02 0.02 0.01 0.01 0.01 0.01 0.01 0.01 0.01 0.01 0.01 0.01 0.02
0.03 0.05 0.06 0.07 0.09 0.10 0.10 0.12 0.12 0.12 0.11 0.14 0.14 0.11 0.10 0.08 0.07 0.06 0.05 0.04 0.04 0.03 0.03 0.03 0.03 0.03 0.03 0.03 0.04 0.03 0.03 0.03 0.02 0.02 0.02 0.02 0.01 0.01 0.01 0.01 0.01 0.01 0.01 0.01
0.05 0.05 0.05 0.06 0.09 0.10 0.09 0.10 0.10 0.09 0.10 0.09 0.10 0.11 0.12 0.12 0.10 0.08 0.07 0.06 0.05 0.04 0.03 0.03 0.03 0.03 0.03 0.04 0.04 0.04 0.04 0.03 0.03 0.03 0.02 0.02 0.02 0.01 0.01 0.01 0.01 0.01 0.01 0.01
0.04 0.04 0.07 0.07 0.06 0.07 0.08 0.07 0.06 0.05 0.07 0.07 0.08 0.08 0.08 0.09 0.08 0.07 0.07 0.07 0.06 0.06 0.05 0.04 0.03 0.02 0.03 0.04 0.04 0.04 0.04 0.04 0.04 0.04 0.04 0.04 0.03 0.03 0.03 0.02 0.02 0.02 0.02 0.01
0.03 0.05 0.06 0.05 0.05 0.06 0.07 0.08 0.07 0.06 0.07 0.10 0.12 0.10 0.11 0.10 0.08 0.07 0.07 0.06 0.06 0.06 0.05 0.04 0.02 0.02 0.03 0.03 0.03 0.04 0.04 0.04 0.04 0.05 0.04 0.04 0.05 0.04 0.04 0.04 0.04 0.04 0.03 0.02
0.05 0.07 0.10 0.09 0.08 0.08 0.08 0.10 0.11 0.09 0.08 0.09 0.10 0.10 0.12 0.12 0.11 0.11 0.09 0.07 0.05 0.04 0.02 0.01 0.01 0.01 0.02 0.03 0.04 0.04 0.04 0.04 0.04 0.04 0.04 0.04 0.05 0.05 0.05 0.04 0.04 0.04 0.03 0.03
0.07 0.09 0.10 0.09 0.10 0.10 0.12 0.13 0.14 0.12 0.10 0.10 0.10 0.09 0.09 0.08 0.07 0.06 0.08 0.08 0.06 0.03 0.02 0.01 0.01 0.01 0.01 0.01 0.01 0.02 0.02 0.02 0.02 0.02 0.03 0.04 0.04 0.04 0.04 0.03 0.03 0.03 0.03 0.02
0.10 0.09 0.10 0.10 0.11 0.10 0.10 0.12 0.13 0.11 0.08 0.07 0.05 0.05 0.05 0.05 0.04 0.03 0.04 0.05 0.05 0.03 0.02 0.02 0.02 0.02 0.01 0.01 0.01 0.01 0.01 0.01 0.01 0.01 0.01 0.01 0.01 0.01 0.01 0.01 0.01 0.01 0.01 0.02
0.12 0.11 0.10 0.10 0.11 0.11 0.09 0.09 0.09 0.08 0.06 0.05 0.04 0.03 0.03 0.06 0.09 0.08 0.07 0.06 0.04 0.02 0.02 0.02 0.02 0.01 0.01 0.01 0.01 0.01 0.01 0.01 0.01 0.01 0.01 0.01 0.01 0.01 0.01 0.01 0.01 0.01 0.01 0.01
0.09 0.09 0.08 0.08 0.09 0.09 0.08 0.08 0.08 0.08 0.06 0.05 0.04 0.04 0.03 0.04 0.07 0.06 0.04 0.03 0.02 0.02 0.01 0.01 0.01 0.01 0.01 0.01 0.01 0.01 0.01 0.01 0.01 0.01 0.01 0.02 0.02 0.02 0.02 0.01 0.01 0.02 0.02 0.02
MSLP
1012.80 1013.19 1013.56 1013.90 1014.18 1014.39 1014.49 1014.48 1014.35 1014.11 1013.78 1013.39 1012.99 1012.61 1012.27 1011.98 1011.75 1011.55 1011.39 1011.25 1011.14 1011.05 1011.01 1011.04 1011.17 1011.41 1011.76 1012.22 1012.73 1013.27 1013.79 1014.24 1014.59 1014.85 1014.99 1015.06 1015.08 1015.08 1015.09 1015.14 1015.22 1015.34 1015.48 1015.63
1013.18 1013.46 1013.65 1013.74 1013.73 1013.63 1013.46 1013.22 1012.94 1012.63 1012.33 1012.04 1011.77 1011.53 1011.31 1011.11 1010.90 1010.68 1010.46 1010.23 1010.03 1009.88 1009.82 1009.88 1010.09 1010.45 1010.94 1011.54 1012.19 1012.84 1013.44 1013.94 1014.32 1014.58 1014.73 1014.80 1014.83 1014.85 1014.90 1014.99 1015.12 1015.27 1015.45 1015.61
1013.78 1013.95 1013.96 1013.82 1013.55 1013.19 1012.76 1012.31 1011.88 1011.50 1011.17 1010.92 1010.72 1010.56 1010.41 1010.24 1010.03 1009.78 1009.49 1009.19 1008.92 1008.73 1008.67 1008.77 1009.05 1009.50 1010.11 1010.82 1011.58 1012.31 1012.96 1013.50 1013.90 1014.16 1014.31 1014.40 1014.45 1014.51 1014.60 1014.75 1014.93 1015.14 1015.35 1015.54
1014.53 1014.58 1014.43 1014.10 1013.62 1013.04 1012.41 1011.78 1011.22 1010.75 1010.38 1010.12 1009.94 1009.81 1009.68 1009.51 1009.29 1009.00 1008.67 1008.32 1008.02 1007.81 1007.76 1007.89 1008.23 1008.75 1009.43 1010.21 1011.02 1011.78 1012.45 1012.99 1013.38 1013.63 1013.79 1013.88 1013.97 1014.07 1014.22 1014.43 1014.67 1014.93 1015.19 1015.41
1015.26 1015.20 1014.92 1014.45 1013.82 1013.08 1012.30 1011.55 1010.89 1010.34 1009.93 1009.64 1009.45 1009.32 1009.19 1009.02 1008.78 1008.48 1008.14 1007.78 1007.48 1007.28 1007.25 1007.41 1007.78 1008.34 1009.04 1009.83 1010.63 1011.37 1012.01 1012.51 1012.87 1013.10 1013.25 1013.36 1013.47 1013.62 1013.82 1014.09 1014.39 1014.70 1015.00 1015.25
1015.82 1015.65 1015.28 1014.71 1013.99 1013.16 1012.31 1011.49 1010.76 1010.17 1009.72 1009.41 1009.21 1009.06 1008.93 1008.77 1008.55 1008.27 1007.95 1007.62 1007.35 1007.20 1007.20 1007.39 1007.77 1008.33 1009.01 1009.75 1010.50 1011.17 1011.74 1012.17 1012.47 1012.67 1012.80 1012.92 1013.05 1013.24 1013.49 1013.80 1014.15 1014.50 1014.82 1015.09
1016.06 1015.81 1015.38 1014.76 1014.01 1013.16 1012.29 1011.46 1010.72 1010.12 1009.65 1009.34 1009.13 1008.99 1008.87 1008.74 1008.56 1008.34 1008.08 1007.83 1007.64 1007.54 1007.60 1007.81 1008.20 1008.72 1009.34 1010.01 1010.65 1011.23 1011.69 1012.04 1012.27 1012.43 1012.53 1012.65 1012.80 1013.01 1013.30 1013.64 1014.02 1014.39 1014.72 1015.00
1015.95 1015.64 1015.17 1014.56 1013.82 1013.01 1012.18 1011.39 1010.68 1010.10 1009.65 1009.34 1009.15 1009.03 1008.95 1008.87 1008.76 1008.63 1008.48 1008.33 1008.24 1008.24 1008.35 1008.59 1008.96 1009.44 1009.99 1010.55 1011.08 1011.53 1011.89 1012.14 1012.30 1012.41 1012.50 1012.60 1012.77 1013.00 1013.30 1013.65 1014.03 1014.40 1014.73 1014.99
1015.52 1015.16 1014.69 1014.12 1013.45 1012.71 1011.97 1011.25 1010.61 1010.07 1009.66 1009.38 1009.22 1009.13 1009.10 1009.09 1009.08 1009.05 1009.03 1009.01 1009.04 1009.13 1009.31 1009.58 1009.94 1010.36 1010.82 1011.27 1011.68 1012.02 1012.27 1012.44 1012.55 1012.62 1012.69 1012.79 1012.96 1013.20 1013.50 1013.85 1014.22 1014.56 1014.86 1015.09
1014.88 1014.51 1014.07 1013.55 1012.97 1012.34 1011.71 1011.09 1010.53 1010.06 1009.70 1009.46 1009.33 1009.28 1009.31 1009.37 1009.45 1009.55 1009.65 1009.76 1009.91 1010.09 1010.33 1010.63 1010.96 1011.33 1011.71 1012.06 1012.36 1012.60 1012.77 1012.88 1012.95 1013.00 1013.07 1013.19 1013.36 1013.60 1013.89 1014.21 1014.55 1014.86 1015.11 1015.30
1014.19 1013.82 1013.42 1012.99 1012.51 1012.00 1011.48 1010.97 1010.51 1010.11 1009.80 1009.60 1009.50 1009.49 1009.56 1009.69 1009.87 1010.06 1010.28 1010.50 1010.75 1011.01 1011.30 1011.61 1011.92 1012.24 1012.54 1012.81 1013.03 1013.20 1013.31 1013.39 1013.45 1013.51 1013.59 1013.72 1013.90 1014.14 1014.41 1014.70 1014.99 1015.25 1015.45 1015.59
1013.58 1013.23 1012.89 1012.54 1012.17 1011.78 1011.38 1010.97 1010.59 1010.26 1010.00 1009.82 1009.75 1009.77 1009.88 1010.06 1010.30 1010.57 1010.87 1011.19 1011.51 1011.83 1012.14 1012.45 1012.74 1013.00 1013.24 1013.45 1013.61 1013.74 1013.83 1013.91 1013.98 1014.07 1014.19 1014.34 1014.54 1014.77 1015.02 1015.28 1015.51 1015.71 1015.85 1015.94
1013.14 1012.82 1012.55 1012.28 1012.01 1011.72 1011.41 1011.10 1010.79 1010.52 1010.30 1010.15 1010.09 1010.14 1010.27 1010.48 1010.76 1011.09 1011.44 1011.81 1012.17 1012.52 1012.84 1013.13 1013.39 1013.61 1013.80 1013.96 1014.09 1014.20 1014.30 1014.40 1014.51 1014.64 1014.80 1014.99 1015.20 1015.43 1015.66 1015.87 1016.05 1016.19 1016.27 1016.30
1012.88 1012.60 1012.38 1012.19 1011.99 1011.79 1011.57 1011.33 1011.08 1010.85 1010.67 1010.54 1010.50 1010.56 1010.70 1010.93 1011.24 1011.60 1011.98 1012.38 1012.76 1013.11 1013.42 1013.69 1013.91 1014.10 1014.25 1014.37 1014.48 1014.59 1014.71 1014.85 1015.01 1015.19 1015.40 1015.62 1015.84 1016.06 1016.26 1016.43 1016.56 1016.63 1016.66 1016.64
1012.77 1012.53 1012.35 1012.21 1012.08 1011.93 1011.77 1011.59 1011.39 1011.20 1011.04 1010.94 1010.92 1010.98 1011.14 1011.39 1011.71 1012.09 1012.49 1012.90 1013.28 1013.62 1013.91 1014.15 1014.34 1014.49 1014.61 1014.71 1014.82 1014.94 1015.08 1015.26 1015.46 1015.69 1015.93 1016.18 1016.42 1016.63 1016.80 1016.92 1016.99 1017.01 1016.98 1016.91
1012.77 1012.55 1012.39 1012.28 1012.18 1012.07 1011.95 1011.80 1011.64 1011.48 1011.35 1011.27 1011.27 1011.36 1011.53 1011.80 1012.14 1012.53 1012.95 1013.35 1013.73 1014.07 1014.34 1014.55 1014.71 1014.83 1014.92 1015.01 1015.11 1015.25 1015.41 1015.62 1015.85 1016.12 1016.38 1016.64 1016.87 1017.06 1017.20 1017.28 1017.29 1017.26 1017.18 1017.07
1012.82 1012.60 1012.45 1012.34 1012.25 1012.15 1012.04 1011.91 1011.77 1011.64 1011.53 1011.48 1011.50 1011.62 1011.82 1012.11 1012.48 1012.89 1013.31 1013.73 1014.11 1014.44 1014.70 1014.89 1015.03 1015.12 1015.20 1015.28 1015.38 1015.51 1015.69 1015.91 1016.16 1016.43 1016.71 1016.96 1017.17 1017.33 1017.42 1017.45 1017.42 1017.34 1017.21 1017.07
1012.91 1012.68 1012.52 1012.39 1012.27 1012.16 1012.04 1011.91 1011.78 1011.66 1011.57 1011.55 1011.60 1011.74 1011.98 1012.30 1012.69 1013.12 1013.56 1014.00 1014.38 1014.71 1014.96 1015.15 1015.28 1015.36 1015.43 1015.50 1015.59 1015.72 1015.89 1016.10 1016.35 1016.61 1016.86 1017.09 1017.27 1017.39 1017.44 1017.42 1017.34 1017.21 1017.05 1016.88
1013.07 1012.82 1012.62 1012.45 1012.30 1012.16 1012.01 1011.86 1011.71 1011.59 1011.51 1011.50 1011.57 1011.74 1012.00 1012.35 1012.76 1013.21 1013.68 1014.13 1014.53 1014.86 1015.12 1015.31 1015.44 1015.52 1015.58 1015.64 1015.72 1015.83 1015.99 1016.18 1016.39 1016.62 1016.84 1017.02 1017.15 1017.23 1017.23 1017.17 1017.05 1016.89 1016.71 1016.52
1013.32 1013.04 1012.81 1012.60 1012.40 1012.21 1012.02 1011.83 1011.66 1011.52 1011.43 1011.42 1011.50 1011.67 1011.95 1012.31 1012.73 1013.20 1013.68 1014.13 1014.55 1014.89 1015.16 1015.36 1015.50 1015.58 1015.64 1015.69 1015.76 1015.85 1015.97 1016.12 1016.30 1016.47 1016.64 1016.77 1016.85 1016.88 1016.84 1016.74 1016.60 1016.42 1016.22 1016.02
1013.70 1013.41 1013.14 1012.89 1012.64 1012.40 1012.16 1011.92 1011.71 1011.54 1011.43 1011.40 1011.46 1011.63 1011.89 1012.24 1012.66 1013.12 1013.60 1014.05 1014.47 1014.82 1015.10 1015.31 1015.45 1015.55 1015.61 1015.65 1015.71 1015.77 1015.86 1015.97 1016.10 1016.22 1016.33 1016.41 1016.44 1016.42 1016.35 1016.23 1016.07 1015.88 1015.68 1015.49
1014.21 1013.91 1013.63 1013.34 1013.05 1012.76 1012.47 1012.19 1011.94 1011.73 1011.58 1011.51 1011.54 1011.68 1011.91 1012.23 1012.62 1013.05 1013.51 1013.95 1014.35 1014.70 1014.99 1015.20 1015.36 1015.46 1015.53 1015.57 1015.61 1015.66 1015.72 1015.79 1015.87 1015.94 1016.00 1016.03 1016.03 1015.98 1015.88 1015.75 1015.59 1015.41 1015.22 1015.04
1014.80 1014.52 1014.23 1013.93 1013.61 1013.29 1012.96 1012.64 1012.35 1012.10 1011.92 1011.81 1011.80 1011.88 1012.07 1012.34 1012.67 1013.06 1013.47 1013.88 1014.26 1014.59 1014.87 1015.09 1015.25 1015.37 1015.45 1015.50 1015.54 1015.58 1015.62 1015.66 1015.71 1015.74 1015.76 1015.76 1015.73 1015.66 1015.56 1015.44 1015.29 1015.12 1014.95 1014.79
1015.39 1015.14 1014.86 1014.57 1014.25 1013.91 1013.57 1013.23 1012.92 1012.64 1012.42 1012.28 1012.22 1012.26 1012.38 1012.59 1012.87 1013.19 1013.54 1013.90 1014.24 1014.55 1014.82 1015.04 1015.21 1015.34 1015.43 1015.50 1015.55 1015.60 1015.63 1015.67 1015.70 1015.72 1015.72 1015.70 1015.66 1015.59 1015.50 1015.38 1015.25 1015.11 1014.97 1014.82
1015.91 1015.69 1015.44 1015.16 1014.86 1014.54 1014.20 1013.87 1013.55 1013.27 1013.04 1012.87 1012.78 1012.77 1012.84 1012.99 1013.20 1013.45 1013.74 1014.04 1014.34 1014.62 1014.87 1015.08 1015.26 1015.41 1015.53 1015.62 1015.70 1015.77 1015.82 1015.87 1015.90 1015.92 1015.92 1015.91 1015.87 1015.82 1015.74 1015.65 1015.54 1015.42 1015.30 1015.17
1016.26 1016.08 1015.87 1015.63 1015.36 1015.06 1014.76 1014.46 1014.17 1013.91 1013.69 1013.52 1013.42 1013.38 1013.41 1013.50 1013.65 1013.84 1014.07 1014.31 1014.56 1014.80 1015.03 1015.25 1015.44 1015.61 1015.76 1015.89 1016.00 1016.10 1016.19 1016.26 1016.32 1016.36 1016.39 1016.39 1016.37 1016.33 1016.27 1016.20 1016.12 1016.02 1015.91 1015.78
1016.43 1016.28 1016.10 1015.90 1015.67 1015.42 1015.17 1014.92 1014.68 1014.47 1014.28 1014.14 1014.05 1014.00 1014.01 1014.07 1014.17 1014.31 1014.49 1014.68 1014.88 1015.10 1015.31 1015.51 1015.72 1015.91 1016.09 1016.26 1016.42 1016.57 1016.71 1016.82 1016.92 1016.99 1017.04 1017.07 1017.07 1017.05 1017.02 1016.96 1016.89 1016.80 1016.69 1016.56
Thickness
5777 5789 5796 5794 5796 5797 5785 5776 5768 5776 5782 5797 5807 5814 5818 5820 5819 5816 5814 5812 5810 5806 5804 5801 5798 5795 5792 5788 5785 5781 5774 5769 5765 5762 5759 5756 5752 5750 5747 5745 5743 5741 5739 5738
5772 5787 5790 5788 5794 5796 5794 5793 5786 5787 5789 5811 5817 5817 5815 5815 5816 5812 5811 5812 5810 5807 5803 5800 5797 5794 5791 5787 5784 5780 5773 5768 5765 5761 5757 5754 5751 5747 5744 5741 5739 5738 5735 5733
5745 5769 5773 5762 5784 5790 5791 5796 5793 5784 5796 5811 5808 5810 5812 5814 5814 5812 5810 5809 5807 5807 5804 5801 5798 5795 5790 5787 5782 5776 5771 5766 5762 5758 5754 5751 5749 5744 5740 5737 5735 5732 5730 5729
5733 5748 5734 5759 5793 5797 5791 5793 5800 5800 5805 5809 5809 5811 5814 5816 5814 5811 5809 5807 5806 5804 5801 5799 5796 5793 5789 5784 5778 5773 5767 5763 5760 5756 5752 5748 5744 5740 5737 5734 5731 5728 5726 5724
5715 5719 5733 5762 5787 5791 5782 5777 5794 5797 5802 5806 5808 5805 5800 5808 5812 5811 5810 5808 5805 5803 5799 5795 5792 5789 5784 5777 5772 5767 5763 5760 5757 5753 5748 5744 5739 5736 5733 5729 5726 5724 5721 5719
5710 5713 5713 5746 5781 5794 5783 5762 5787 5793 5796 5798 5798 5779 5783 5799 5804 5804 5805 5803 5800 5798 5794 5789 5786 5783 5777 5771 5767 5762 5760 5757 5754 5751 5745 5740 5736 5733 5729 5726 5722 5719 5715 5713
5700 5703 5716 5753 5777 5782 5747 5750 5780 5787 5790 5792 5787 5787 5790 5794 5796 5797 5796 5795 5794 5790 5785 5781 5780 5776 5769 5765 5762 5760 5757 5753 5749 5746 5741 5737 5732 5728 5724 5720 5716 5712 5709 5706
5688 5690 5703 5752 5763 5753 5750 5767 5774 5780 5783 5783 5783 5785 5785 5785 5786 5786 5785 5784 5783 5778 5774 5772 5771 5768 5762 5757 5757 5755 5751 5746 5742 5739 5735 5731 5726 5722 5718 5713 5709 5705 5701 5698
5694 5699 5722 5740 5748 5755 5758 5759 5764 5768 5773 5776 5774 5771 5773 5774 5774 5774 5773 5771 5769 5766 5761 5759 5758 5758 5753 5750 5749 5746 5742 5737 5734 5731 5727 5724 5719 5714 5710 5705 5701 5698 5694 5691
5691 5702 5715 5728 5738 5744 5750 5752 5757 5760 5762 5765 5761 5761 5761 5761 5761 5761 5759 5757 5755 5752 5749 5746 5745 5745 5743 5741 5740 5737 5732 5728 5725 5721 5717 5713 5710 5706 5701 5697 5694 5690 5687 5685
5680 5692 5704 5715 5722 5730 5737 5743 5747 5748 5751 5752 5751 5749 5749 5748 5748 5747 5746 5743 5742 5740 5737 5735 5734 5733 5731 5729 5728 5724 5720 5717 5714 5711 5706 5702 5697 5693 5690 5687 5684 5682 5680 5678
5665 5679 5686 5694 5710 5720 5724 5727 5732 5734 5735 5737 5737 5735 5736 5735 5735 5734 5732 5730 5728 5726 5724 5722 5720 5718 5718 5717 5715 5711 5707 5704 5702 5699 5695 5690 5685 5679 5676 5675 5673 5672 5670 5668
5668 5678 5683 5691 5701 5709 5713 5716 5719 5721 5723 5722 5721 5722 5723 5720 5719 5718 5717 5715 5714 5712 5711 5709 5705 5704 5703 5703 5702 5699 5696 5693 5691 5687 5684 5680 5676 5672 5667 5664 5662 5660 5658 5656
5666 5671 5673 5679 5685 5694 5700 5705 5705 5706 5708 5711 5709 5708 5708 5705 5703 5702 5701 5701 5701 5700 5698 5696 5693 5691 5691 5690 5689 5688 5685 5682 5679 5676 5673 5670 5667 5663 5660 5656 5653 5649 5645 5643
5658 5663 5664 5670 5675 5681 5687 5690 5689 5689 5691 5693 5694 5693 5693 5691 5689 5688 5688 5689 5688 5686 5684 5683 5681 5680 5679 5678 5677 5675 5673 5670 5668 5666 5662 5659 5656 5653 5649 5646 5643 5639 5634 5630
5649 5654 5657 5659 5663 5667 5672 5674 5673 5674 5677 5679 5680 5681 5681 5680 5678 5677 5676 5676 5673 5671 5670 5669 5668 5668 5667 5667 5665 5663 5661 5660 5658 5654 5651 5647 5644 5641 5637 5634 5631 5628 5624 5620
5638 5640 5644 5648 5652 5656 5660 5663 5664 5663 5665 5666 5667 5668 5668 5666 5664 5663 5662 5662 5661 5659 5658 5657 5657 5657 5656 5655 5653 5651 5649 5648 5647 5643 5639 5635 5632 5629 5626 5623 5620 5617 5614 5611
5634 5636 5639 5642 5644 5646 5650 5653 5655 5655 5655 5657 5657 5656 5655 5654 5651 5650 5650 5649 5648 5646 5646 5646 5645 5645 5644 5643 5641 5640 5638 5635 5633 5631 5627 5624 5622 5619 5615 5612 5609 5606 5603 5600
5626 5629 5632 5635 5638 5639 5640 5641 5643 5645 5646 5646 5646 5643 5644 5644 5642 5641 5639 5637 5635 5634 5634 5635 5634 5633 5632 5631 5630 5628 5626 5624 5621 5619 5616 5613 5610 5607 5604 5601 5598 5595 5593 5590
5617 5620 5623 5625 5628 5629 5630 5632 5634 5635 5635 5635 5634 5633 5631 5632 5632 5631 5628 5626 5624 5624 5623 5623 5622 5621 5620 5619 5618 5616 5614 5612 5610 5607 5604 5602 5599 5597 5594 5591 5588 5585 5583 5580
5607 5610 5612 5614 5616 5618 5620 5622 5624 5625 5626 5625 5625 5624 5623 5622 5621 5620 5618 5615 5615 5615 5614 5613 5611 5610 5609 5608 5607 5605 5603 5601 5598 5595 5593 5590 5588 5585 5583 5580 5578 5575 5573 5570
5598 5602 5603 5605 5606 5608 5611 5613 5615 5616 5616 5615 5616 5616 5614 5612 5611 5609 5608 5606 5605 5605 5604 5603 5601 5600 5599 5598 5596 5594 5592 5590 5587 5584 5582 5579 5577 5574 5572 5570 5567 5565 5563 5561
5591 5594 5596 5597 5599 5600 5602 5604 5606 5607 5607 5607 5608 5606 5605 5604 5602 5599 5596 5596 5595 5595 5594 5592 5592 5591 5589 5587 5585 5583 5581 5579 5577 5575 5572 5570 5567 5565 5563 5561 5558 5556 5554 5552
5585 5587 5589 5591 5592 5593 5594 5595 5597 5598 5599 5599 5599 5598 5597 5595 5592 5591 5590 5588 5587 5586 5584 5582 5582 5581 5579 5576 5575 5573 5571 5569 5567 5565 5562 5560 5557 5555 5553 5551 5548 5546 5544 5543
5580 5582 5583 5584 5585 5586 5587 5588 5588 5589 5589 5589 5589 5589 5589 5587 5585 5582 5581 5579 5577 5576 5574 5573 5572 5570 5568 5566 5565 5563 5561 5559 5557 5555 5552 5550 5547 5544 5542 5540 5537 5535 5533 5531
5574 5575 5576 5577 5578 5579 5580 5581 5581 5580 5579 5579 5579 5579 5578 5578 5577 5575 5573 5571 5569 5567 5565 5563 5562 5560 5558 5556 5554 5552 5550 5548 5546 5543 5541 5538 5535 5533 5531 5528 5526 5523 5521 5519
5569 5570 5570 5571 5572 5573 5574 5574 5574 5572 5572 5571 5570 5569 5569 5568 5567 5566 5564 5562 5560 5558 5556 5554 5552 5550 5549 5546 5544 5541 5539 5537 5534 5532 5529 5526 5524 5521 5519 5517 5515 5512 5510 5508